CW4038 Weather Reports


time (UTC)temp
F
wind
direction
speed
knots
gust
knots
rain 1hr
in
rain 24hr
in
rain mn
in
humidity
%
barometer
mb
20200224093323 48 304 0.0 0.9 0.00 0.00 0.00 90 1027.1
20200224092421 48 23 0.0 0.0 0.00 0.00 0.00 89 1027.1
20200224091521 48 23 0.0 0.0 0.00 0.00 0.00 90 1027.1
20200224090619 48 23 0.0 0.0 0.00 0.00 0.00 89 1027.1
20200224085719 48 23 0.0 0.0 0.00 0.00 0.00 88 1027.1
20200224084817 49 23 0.0 0.0 0.00 0.00 0.00 88 1026.8
20200224083916 49 23 0.0 0.9 0.00 0.00 0.00 88 1026.8
20200224083015 49 20 0.0 0.9 0.00 0.00 0.00 89 1026.8
20200224082114 49 20 0.0 0.9 0.00 0.00 0.00 89 1026.8
20200224081214 49 20 0.0 1.7 0.00 0.00 0.00 89 1026.8
20200224080312 50 20 0.0 1.7 0.00 0.00 0.00 89 1026.8
20200224075411 49 5 0.9 1.7 0.00 0.00 0.00 89 1026.8
20200224074510 49 340 0.0 0.0 0.00 0.00 0.00 88 1026.7
20200224073610 49 340 0.0 0.0 0.00 0.00 0.00 87 1026.7
20200224072709 50 340 0.0 0.0 0.00 0.00 0.00 87 1026.7
20200224071808 50 340 0.0 0.0 0.00 0.00 0.00 86 1027.1
20200224070907 50 340 0.0 0.0 0.00 0.00 0.00 86 1027.1
20200224070007 50 340 0.0 0.0 0.00 0.00 0.00 84 1027.1
20200224065106 51 340 0.0 0.0 0.00 0.00 0.00 83 1027.1
20200224064205 51 340 0.0 0.0 0.00 0.00 0.00 83 1027.1
20200224063305 51 340 0.0 0.0 0.00 0.00 0.00 82 1027.1
20200224062403 52 340 0.0 0.0 0.00 0.00 0.00 81 1027.1
20200224061502 52 340 0.0 0.0 0.00 0.00 0.00 80 1027.1
20200224060602 53 340 0.0 0.0 0.00 0.00 0.00 80 1027.1
20200224055701 53 340 0.0 0.9 0.00 0.00 0.00 79 1026.7
20200224054800 53 340 0.0 0.9 0.00 0.00 0.00 79 1027.1
20200224053859 53 340 0.0 0.0 0.00 0.00 0.00 78 1026.7
20200224052959 54 340 0.0 0.0 0.00 0.00 0.00 78 1026.7
20200224052058 54 340 0.0 0.0 0.00 0.00 0.00 78 1026.7
20200224051158 54 340 0.0 0.0 0.00 0.00 0.00 77 1026.7
20200224050256 55 340 0.0 0.9 0.00 0.00 0.00 76 1026.4
20200224045355 55 340 0.0 0.9 0.00 0.00 0.00 74 1026.4
20200224044454 56 340 0.9 0.9 0.00 0.00 0.00 74 1026.4
20200224043553 56 340 0.0 0.9 0.00 0.00 0.00 73 1026.4
20200224042652 57 340 0.0 0.9 0.00 0.00 0.00 72 1026.0
20200224041751 57 340 0.0 0.9 0.00 0.00 0.00 71 1026.0
20200224040850 58 340 0.9 0.9 0.00 0.00 0.00 71 1026.0
20200224035950 58 342 0.9 0.9 0.00 0.00 0.00 70 1026.0
20200224035049 58 345 0.0 0.9 0.00 0.00 0.00 69 1026.0
20200224034148 59 347 0.0 1.7 0.00 0.00 0.00 67 1025.6
20200224033247 59 347 0.0 1.7 0.00 0.00 0.00 66 1025.6
20200224032346 60 340 0.0 1.7 0.00 0.00 0.00 65 1025.6
20200224031445 60 333 0.9 1.7 0.00 0.00 0.00 65 1025.3
20200224030544 60 340 0.9 1.7 0.00 0.00 0.00 65 1025.3
20200224025644 60 19 0.0 0.9 0.00 0.00 0.00 66 1025.2
20200224024743 60 19 0.9 0.9 0.00 0.00 0.00 65 1025.2
20200224023842 61 20 0.0 0.0 0.00 0.00 0.00 64 1025.2
20200224022941 62 20 0.0 0.0 0.00 0.00 0.00 61 1024.9
20200224022041 62 20 0.0 0.0 0.00 0.00 0.00 60 1024.9
20200224021140 63 20 0.0 0.9 0.00 0.00 0.00 58 1024.6
20200224020239 64 20 0.0 0.9 0.00 0.00 0.00 56 1024.6
20200224015338 64 15 0.0 0.9 0.00 0.00 0.00 56 1024.6
20200224014436 65 16 0.0 1.7 0.00 0.00 0.00 55 1024.6
20200224013535 66 16 0.9 3.5 0.00 0.00 0.00 54 1024.6
20200224012634 66 34 0.0 3.5 0.00 0.00 0.00 53 1024.7
20200224011733 67 9 0.9 3.5 0.00 0.00 0.00 52 1024.7
20200224010833 67 333 0.9 3.5 0.00 0.00 0.00 52 1024.7
20200224005932 68 324 0.9 2.6 0.00 0.00 0.00 50 1024.7
20200224005032 68 64 0.9 4.3 0.00 0.00 0.00 51 1025.1
20200224004130 68 329 0.9 4.3 0.00 0.00 0.00 50 1025.1
20200224003229 69 314 1.7 3.5 0.00 0.00 0.00 50 1025.1
20200224002328 69 356 0.9 4.3 0.00 0.00 0.00 49 1025.1
20200224001427 69 18 1.7 4.3 0.00 0.00 0.00 50 1024.8
20200224000526 69 333 1.7 4.3 0.00 0.00 0.00 50 1024.8
20200223235625 69 330 1.7 5.2 0.00 0.00 0.00 50 1024.8
20200223234724 69 344 0.9 5.2 0.00 0.00 0.00 50 1024.8
20200223233823 70 346 1.7 3.5 0.00 0.00 0.00 50 1024.8
20200223232921 69 286 0.9 5.2 0.00 0.00 0.00 51 1024.8
20200223232020 69 325 1.7 5.2 0.00 0.01 0.00 50 1024.8
20200223231119 70 305 1.7 2.6 0.00 0.02 0.00 49 1024.8
20200223230218 69 48 0.9 4.3 0.00 0.02 0.00 50 1024.8
20200223225317 68 331 1.7 5.2 0.00 0.02 0.00 52 1024.8
20200223224416 69 320 1.7 5.2 0.00 0.02 0.00 51 1024.8
20200223223515 69 331 1.7 3.5 0.00 0.02 0.00 50 1024.8
20200223222614 69 353 1.7 4.3 0.00 0.02 0.00 51 1024.8
20200223221714 69 332 2.6 6.1 0.00 0.02 0.00 52 1025.1
20200223220813 68 318 1.7 6.1 0.00 0.02 0.00 52 1025.1
20200223215911 68 353 1.7 3.5 0.00 0.02 0.00 52 1025.1
20200223215010 68 24 1.7 5.2 0.00 0.02 0.00 51 1025.1
20200223214110 68 345 1.7 6.1 0.00 0.02 0.00 53 1025.1
20200223213209 68 328 0.9 5.2 0.00 0.02 0.00 53 1025.4
20200223212308 68 317 1.7 6.1 0.00 0.02 0.00 53 1025.4
20200223211407 67 11 1.7 6.1 0.00 0.02 0.00 55 1025.8
20200223210506 66 328 0.9 6.1 0.00 0.02 0.00 55 1025.8
20200223205605 66 19 2.6 6.1 0.00 0.02 0.00 55 1025.8
20200223204705 66 325 2.6 5.2 0.00 0.02 0.00 56 1026.1
20200223203804 65 335 1.7 7.0 0.00 0.02 0.00 56 1026.1
20200223202903 65 334 2.6 7.0 0.00 0.02 0.00 57 1026.1
20200223202003 65 320 1.7 7.0 0.00 0.02 0.00 57 1026.4
20200223201101 64 354 2.6 7.0 0.00 0.02 0.00 58 1026.4
20200223200201 64 329 2.6 7.0 0.00 0.02 0.00 58 1026.4
20200223195300 64 327 2.6 7.0 0.00 0.02 0.00 58 1026.4
20200223194359 64 326 1.7 6.1 0.00 0.02 0.00 59 1026.4
20200223193458 64 327 1.7 4.3 0.00 0.02 0.00 60 1026.4
20200223192558 63 342 0.9 3.5 0.00 0.02 0.00 61 1026.4
20200223191657 63 327 1.7 3.5 0.00 0.02 0.00 61 1026.4
20200223190756 63 339 0.9 4.3 0.00 0.02 0.00 62 1026.4
20200223185855 62 355 0.9 4.3 0.00 0.02 0.00 63 1026.4
20200223184954 62 305 0.0 2.6 0.00 0.02 0.00 64 1026.4
20200223184053 62 339 0.9 2.6 0.00 0.02 0.00 64 1026.4
20200223183152 60 68 0.9 2.6 0.00 0.02 0.00 67 1026.4
20200223182251 60 345 0.9 1.7 0.00 0.02 0.00 66 1026.4
20200223181351 61 339 0.9 1.7 0.00 0.02 0.00 65 1026.4
20200223180450 60 110 0.0 1.7 0.00 0.02 0.00 68 1026.4
20200223175549 59 264 0.9 0.9 0.00 0.02 0.00 69 1026.4
20200223174648 58 1 0.0 0.9 0.00 0.02 0.00 69 1026.4
20200223173748 58 85 0.0 1.7 0.00 0.02 0.00 71 1026.4
20200223172847 58 190 0.0 1.7 0.00 0.02 0.00 71 1026.4
20200223171946 57 158 0.9 2.6 0.00 0.02 0.00 72 1026.4
20200223171046 56 162 1.7 2.6 0.00 0.02 0.00 73 1026.4
20200223170145 56 132 0.9 2.6 0.00 0.02 0.00 74 1026.0
20200223165244 55 108 0.9 3.5 0.00 0.02 0.00 76 1026.0
20200223164343 54 140 0.9 3.5 0.00 0.02 0.00 77 1026.4
20200223163442 54 164 1.7 2.6 0.00 0.02 0.00 79 1026.0
20200223162541 53 142 0.9 3.5 0.00 0.02 0.00 82 1026.0
20200223161640 52 143 0.9 3.5 0.00 0.02 0.00 85 1026.0
20200223160740 51 149 0.0 1.7 0.00 0.02 0.00 88 1026.0
20200223155839 49 168 0.9 1.7 0.00 0.02 0.00 91 1025.6
20200223154938 48 162 0.0 0.9 0.00 0.02 0.00 92 1025.6
20200223154037 47 141 0.9 0.9 0.00 0.02 0.00 92 1025.6
20200223153136 47 157 0.9 0.9 0.00 0.02 0.00 92 1025.2
20200223152235 46 156 0.0 0.9 0.00 0.02 0.00 92 1025.2
20200223151334 45 144 0.9 0.9 0.00 0.02 0.00 92 1025.2
20200223112310 48 73 0.0 0.9 0.00 0.02 0.00 88 1021.2
20200223111409 49 73 0.0 1.7 0.00 0.02 0.00 88 1020.9
20200223110508 49 4 0.9 2.6 0.00 0.02 0.00 90 1020.9
20200223105607 49 52 0.9 2.6 0.00 0.02 0.00 90 1021.0
20200223104707 49 48 0.9 2.6 0.00 0.02 0.00 91 1021.0
20200223103806 49 70 0.9 2.6 0.00 0.02 0.00 91 1021.0
20200223102905 49 15 0.0 1.7 0.00 0.02 0.00 91 1021.0
20200223102005 49 6 0.9 1.7 0.00 0.02 0.00 91 1021.0
20200223101104 49 16 0.9 2.6 0.00 0.02 0.00 91 1021.0
20200223100203 48 10 0.9 2.6 0.00 0.02 0.00 91 1021.0
20200223095301 48 6 0.9 1.7 0.00 0.02 0.00 92 1021.0
20200223094400 48 329 0.9 1.7 0.00 0.02 0.00 92 1020.7